Regional Weather Roundup
Issued by NWS Lake Charles, LA

Home | Current Version | Previous Version | Text Only | Print | Product List | Glossary On
Versions: 1 2 3 4 5 6 7 8 9 10 11 12 13 14 15 16 17 18 19 20 21 22 23 24 25 26 27 28 29 30 31 32 33 34 35 36 37 38 39 40 41 42 43 44 45 46 47 48 49 50
000
ASUS44 KLCH 251510
RWRLCH
REGIONAL WEATHER ROUNDUP
NATIONAL WEATHER SERVICE LAKE CHARLES LA
1000 AM CDT SUN SEP 25 2016

Note: "fair" indicates few or no clouds below 12,000 feet with no
significant weather and/or obstructions to visibility.


ACROSS SOUTHEAST TEXAS

CITY           SKY/WX    TMP DP  RH WIND       PRES   REMARKS
BEAUMONT       PTSUNNY   81  75  82 E7        30.02R
BEAUMONT CITY  FAIR      83  75  78 SE3       30.03R
ORANGE         CLOUDY    82  75  79 SE7       30.04R
JASPER           N/A     81  75  83 E3        30.05S
$$

ACROSS CENTRAL LOUISIANA

CITY           SKY/WX    TMP DP  RH WIND       PRES   REMARKS
LEESVILLE      MOSUNNY   81  74  79 E8        30.04R
FULLERTON      FAIR      82  74  76 CALM      30.02F
ALEXANDRIA INT SUNNY     82  73  74 SE6       30.04S
ESLER FIELD    SUNNY     82  75  79 E5        30.06S
DERIDDER       FAIR      82  76  82 E5        30.07R
OAKDALE        SUNNY     82  74  78 E6        30.05S
OPELOUSAS      FAIR      82  74  77 SE5       30.06R
$$

ACROSS SOUTHWEST AND SOUTH CENTRAL LOUISIANA

CITY           SKY/WX    TMP DP  RH WIND       PRES   REMARKS
SULPHUR        MOSUNNY   85  76  76 E9        30.04S
LAKE CHARLES   CLOUDY    82  77  84 SE9       30.03R
CHENNAULT INT  PTSUNNY   82  75  78 E13       30.04R
CAMERON PHI    MOSUNNY   77  75  94 E6        30.02R FOG
DEQUINCY       FAIR      81  74  80 E7        30.04S
JENNINGS       FAIR      82  75  79 E6        30.04F
LAFAYETTE      SUNNY     85  74  69 CALM      30.05R
NEW IBERIA     MOSUNNY   85  74  69 S8        30.05S
ABBEVILLE      FAIR      82  75  79 CALM      30.06R
PATTERSON      MOSUNNY   85  77  77 E5        30.05S
SALT POINT     NOT AVBL
$$

SELECTED SITES ACROSS THE REGION

CITY           SKY/WX    TMP DP  RH WIND       PRES   REMARKS
HOUSTON BUSH   PTSUNNY   80  76  87 SE18G26   30.01R THUNDER
HOUSTON HOBBY  CLOUDY    77  74  90 E6        30.01R THUNDER
GALVESTON      CLOUDY    82  76  81 N5        30.01R
COLLEGE STAT   PTSUNNY   82  76  81 SE9       30.00R
CONROE         CLOUDY    79  76  90 E6        30.01S
HUNTSVILLE     CLOUDY    80  75  84 E5        30.02R
LUFKIN         PTSUNNY   79  74  84 SE8       30.03R
SHREVEPORT     PTSUNNY   81  74  79 SE5       30.04S
MONROE         SUNNY     84  73  69 CALM      30.07S
NATCHEZ MS     SUNNY     81  72  74 CALM      30.07S
BATON ROUGE    SUNNY     83  73  72 CALM      30.06S
N.O. INTL ARPT MOSUNNY   86  76  71 E6        30.05S
SLIDELL        SUNNY     84  74  71 N6        30.05S
$$

MARINE REPORTS

STATION/POSITION TIME  SKY/WX   TEMP    WIND        PRES    VSBY
                                AIR SEA DIR/SP/G
                 (UTC)          (F)     (DEG/KT/KT) (MB)    (MI)
BUOY 30 S HIGH I 1450            85 86  160/  8/ 10 1016.1R
WVE H/P(F/S)=  2/ 5

SEA RIM ST PARK  1500            80      70/  7/  9 1017.0R
PORT ARTHUR      1400               87  160/  3/  6 1016.4R
SABINE PASS N    1400            80 87  360/  4/  6 1017.6R
TEXAS POINT      NOT AVBL
CALCASIEU PASS   1400            78 85   80/  8/ 10 1015.4R
LK CHARLES BEACH 1400            81 85              1017.1R
MARSH ISLAND     1400            85                   N/A
FRESH WATER LOCK 1400            78 85  140/  6/  8 1017.9R
AMERADA PASS     1400            77 84   CALM  /  4 1017.3R
$$



USA.gov is the U.S. government's official web portal to all federal, state and local government web resources and services.